TimeCEST,TemperatureF,Dew PointF,Humidity,Sea Level PressureIn,VisibilityMPH,Wind Direction,Wind SpeedMPH,Gust SpeedMPH,PrecipitationIn,Events,Conditions,WindDirDegrees,DateUTC
12:25 AM,55.4,50.0,82,30.36,6.2,ESE,2.3,-,N/A,,Mostly Cloudy,110,2013-08-20 22:25:00
12:55 AM,53.6,50.0,88,30.33,6.2,ESE,3.5,-,N/A,,Unknown,120,2013-08-20 22:55:00
1:25 AM,57.2,51.8,82,30.33,6.2,SE,4.6,-,N/A,,Unknown,140,2013-08-20 23:25:00
1:55 AM,55.4,48.2,77,30.33,6.2,SSE,3.5,-,N/A,,Unknown,150,2013-08-20 23:55:00
2:25 AM,53.6,50.0,88,30.33,6.2,East,2.3,-,N/A,,Unknown,80,2013-08-21 00:25:00
2:55 AM,51.8,50.0,94,30.33,6.2,ENE,2.3,-,N/A,,Mostly Cloudy,60,2013-08-21 00:55:00
3:25 AM,51.8,50.0,94,30.33,6.2,East,1.2,-,N/A,,Overcast,90,2013-08-21 01:25:00
3:55 AM,51.8,50.0,94,30.33,6.2,ESE,2.3,-,N/A,,Unknown,110,2013-08-21 01:55:00
4:25 AM,50.0,48.2,94,30.30,6.2,SSE,1.2,-,N/A,,Unknown,150,2013-08-21 02:25:00
4:55 AM,51.8,50.0,94,30.30,6.2,East,2.3,-,N/A,,Overcast,80,2013-08-21 02:55:00
5:25 AM,51.8,50.0,94,30.30,6.2,Calm,Calm,-,N/A,,Mostly Cloudy,0,2013-08-21 03:25:00
5:55 AM,51.8,50.0,94,30.30,6.2,South,1.2,-,N/A,,Mostly Cloudy,170,2013-08-21 03:55:00
6:25 AM,51.8,50.0,94,30.30,6.2,SE,1.2,-,N/A,,Scattered Clouds,130,2013-08-21 04:25:00
6:55 AM,51.8,50.0,94,30.30,6.2,Calm,Calm,-,N/A,,Partly Cloudy,0,2013-08-21 04:55:00
7:25 AM,51.8,50.0,94,30.30,6.2,SE,1.2,-,N/A,,Unknown,130,2013-08-21 05:25:00
7:55 AM,53.6,50.0,88,30.30,6.2,East,2.3,-,N/A,,Unknown,90,2013-08-21 05:55:00
8:25 AM,55.4,51.8,88,30.30,6.2,SE,1.2,-,N/A,,Unknown,130,2013-08-21 06:25:00
8:55 AM,59.0,53.6,82,30.30,6.2,South,1.2,-,N/A,,Scattered Clouds,180,2013-08-21 06:55:00
9:25 AM,60.8,51.8,72,30.30,6.2,South,2.3,-,N/A,,Mostly Cloudy,190,2013-08-21 07:25:00
9:55 AM,62.6,51.8,68,30.30,6.2,South,3.5,-,N/A,,Mostly Cloudy,170,2013-08-21 07:55:00
10:25 AM,64.4,51.8,64,30.30,6.2,SSE,3.5,-,N/A,,Unknown,160,2013-08-21 08:25:00
10:55 AM,66.2,51.8,60,30.30,6.2,South,3.5,-,N/A,,Unknown,180,2013-08-21 08:55:00
11:25 AM,69.8,53.6,56,30.30,6.2,South,3.5,-,N/A,,Unknown,180,2013-08-21 09:25:00
11:55 AM,69.8,51.8,53,30.27,6.2,South,4.6,-,N/A,,Unknown,170,2013-08-21 09:55:00
12:25 PM,71.6,50.0,46,30.27,6.2,SSW,5.8,-,N/A,,Partly Cloudy,200,2013-08-21 10:25:00
12:55 PM,71.6,50.0,46,30.27,6.2,SSW,5.8,-,N/A,,Unknown,200,2013-08-21 10:55:00
1:25 PM,71.6,50.0,46,30.27,6.2,SSW,5.8,-,N/A,,Unknown,210,2013-08-21 11:25:00
1:55 PM,73.4,51.8,47,30.27,6.2,SSW,5.8,-,N/A,,Scattered Clouds,210,2013-08-21 11:55:00
2:25 PM,73.4,50.0,44,30.27,6.2,SSW,3.5,-,N/A,,Unknown,200,2013-08-21 12:25:00
2:55 PM,73.4,50.0,44,30.24,6.2,South,1.2,-,N/A,,Partly Cloudy,180,2013-08-21 12:55:00
3:25 PM,73.4,50.0,44,30.24,6.2,South,3.5,-,N/A,,Mostly Cloudy,180,2013-08-21 13:25:00
3:55 PM,73.4,51.8,47,30.24,6.2,NE,2.3,-,N/A,,Mostly Cloudy,50,2013-08-21 13:55:00
4:10 PM,73.4,51.8,47,30.21,6.2,SSE,5.8,-,N/A,,Mostly Cloudy,160,2013-08-21 14:10:00
4:25 PM,73.4,51.8,47,30.21,6.2,ENE,3.5,-,N/A,,Mostly Cloudy,70,2013-08-21 14:25:00
4:55 PM,73.4,51.8,47,30.21,6.2,South,2.3,-,N/A,,Partly Cloudy,190,2013-08-21 14:55:00
5:25 PM,75.2,51.8,44,30.21,6.2,SSE,2.3,-,N/A,,Unknown,160,2013-08-21 15:25:00
5:55 PM,75.2,51.8,44,30.21,6.2,South,2.3,-,N/A,,Unknown,190,2013-08-21 15:55:00
6:25 PM,75.2,51.8,44,30.21,6.2,NNW,2.3,-,N/A,,Partly Cloudy,340,2013-08-21 16:25:00
6:55 PM,73.4,51.8,47,30.18,6.2,ESE,3.5,-,N/A,,Partly Cloudy,120,2013-08-21 16:55:00
7:25 PM,71.6,53.6,53,30.18,6.2,East,3.5,-,N/A,,Scattered Clouds,100,2013-08-21 17:25:00
7:55 PM,71.6,55.4,57,30.18,6.2,East,4.6,-,N/A,,Overcast,100,2013-08-21 17:55:00
8:25 PM,69.8,53.6,56,30.18,6.2,East,4.6,-,N/A,,Overcast,90,2013-08-21 18:25:00
8:55 PM,66.2,53.6,64,30.18,6.2,ENE,2.3,-,N/A,,Unknown,70,2013-08-21 18:55:00
9:01 PM,66.2,53.6,64,30.18,3.1,ENE,2.3,-,N/A,,Haze,70,2013-08-21 19:01:00
9:05 PM,66.2,53.6,64,30.18,6.2,ENE,2.3,-,N/A,,Unknown,70,2013-08-21 19:05:00
9:09 PM,64.4,53.6,68,30.18,4.3,ENE,2.3,-,N/A,,Haze,70,2013-08-21 19:09:00
9:14 PM,62.6,53.6,72,30.18,6.2,ENE,1.2,-,N/A,,Unknown,70,2013-08-21 19:14:00
9:25 PM,62.6,53.6,72,30.18,6.2,ENE,1.2,-,N/A,,Unknown,70,2013-08-21 19:25:00
9:55 PM,62.6,53.6,72,30.18,6.2,ESE,1.2,-,N/A,,Unknown,110,2013-08-21 19:55:00
10:25 PM,62.6,53.6,72,30.18,6.2,East,2.3,-,N/A,,Unknown,90,2013-08-21 20:25:00
10:55 PM,60.8,53.6,77,30.18,6.2,ESE,1.2,-,N/A,,Unknown,110,2013-08-21 20:55:00
11:25 PM,60.8,53.6,77,30.18,6.2,East,2.3,-,N/A,,Unknown,90,2013-08-21 21:25:00
11:55 PM,59.0,53.6,82,30.18,6.2,ESE,3.5,-,N/A,,Unknown,110,2013-08-21 21:55:00